Weather History for KIJX - March, 2012

Change the Weather History Date:

Wednesday, March 28, 2012

  Actual Average (KSPI) Record (KSPI)
Temperature  
Mean Temperature 67 °F 47 °F  
Max Temperature 79 °F 57 °F 86 °F (1985)
Min Temperature 55 °F 36 °F 14 °F (1934)
Degree Days  
Heating Degree Days 0 18  
Month to date heating degree days 657  
Since 1 July heating degree days 4928  
Cooling Degree Days 2 0  
Month to date cooling degree days 0  
Year to date cooling degree days 0  
Growing Degree Days 17 (Base 50)    
Moisture  
Dew Point 45 °F    
Average Humidity 46    
Maximum Humidity 80    
Minimum Humidity 21    
Precipitation  
Precipitation 0.00 in 0.09 in 1.50 in (1924)
Month to date precipitation 2.34  
Year to date precipitation 5.97  
Snow  
Snow 0.00 in 0.00 in 2.60 in (1888)
Month to date snowfall 2.4  
Since 1 July snowfall 20.5  
Snow Depth -    
Sea Level Pressure  
Sea Level Pressure 29.97 in    
Wind  
Wind Speed 7 mph (WNW)    
Max Wind Speed 13 mph    
Max Gust Speed 21 mph    
Visibility 10 miles    
Events      
T = Trace of Precipitation, MM = Missing Value Source: NWS Daily Summary

Daily Weather History Graph

Daily Weather History Graph

Search for Another Location

Airport or City:

Trip Planner

Search our weather history database for the weather conditions in past years. The results will help you decide how hot, cold, wet, or windy it might be!

Date:

Astronomy

Mar. 28, 2012 Rise Set
Actual Time 6:50 AM CDT 7:21 PM CDT
Civil Twilight 6:23 AM CDT 7:48 PM CDT
Nautical Twilight 5:51 AM CDT 8:20 PM CDT
Astronomical Twilight 5:19 AM CDT 8:53 PM CDT
Moon 10:08 AM CDT (3/28) 12:23 AM CDT (3/28)
Length of Visible Light 13h 25m
Length of Day
12h 30m
Waxing Crescent, 30% of the Moon is Illuminated
Mar 28
Waxing Crescent
Mar 30
First Quarter
Apr 6
Full
Apr 13
Last Quarter
Apr 21
New

Hourly Weather History & Observations

Time (CDT) Temp. Dew Point Humidity Pressure Visibility Wind Dir Wind Speed Gust Speed Precip Events Conditions
12:15 AM 72.3 °F 53.8 °F 52% 29.90 in 10.0 mi SSW 10.4 mph - N/A   Scattered Clouds
12:35 AM 70.0 °F 54.7 °F 58% 29.90 in 10.0 mi SW 4.6 mph - N/A   Scattered Clouds
12:55 AM 70.0 °F 54.1 °F 57% 29.90 in 10.0 mi SW 6.9 mph - N/A   Scattered Clouds
1:15 AM 69.1 °F 54.5 °F 60% 29.90 in 10.0 mi SW 8.1 mph - N/A   Scattered Clouds
1:35 AM 68.4 °F 54.5 °F 61% 29.90 in 10.0 mi SW 8.1 mph - N/A   Scattered Clouds
1:55 AM 68.2 °F 54.5 °F 62% 29.90 in 10.0 mi SW 8.1 mph - N/A   Scattered Clouds
2:15 AM 70.0 °F 54.7 °F 58% 29.90 in 10.0 mi SW 8.1 mph - N/A   Scattered Clouds
2:35 AM 68.0 °F 54.9 °F 63% 29.90 in 10.0 mi SW 8.1 mph - N/A   Clear
2:55 AM 66.7 °F 54.9 °F 66% 29.90 in 10.0 mi SW 8.1 mph - N/A   Clear
3:15 AM 66.9 °F 54.9 °F 65% 29.90 in 10.0 mi SW 6.9 mph - N/A   Mostly Cloudy
3:35 AM 66.2 °F 55.0 °F 67% 29.90 in 10.0 mi SW 8.1 mph - N/A   Scattered Clouds
3:55 AM 65.3 °F 54.9 °F 69% 29.90 in 10.0 mi SW 8.1 mph - N/A   Clear
4:15 AM 66.2 °F 55.9 °F 69% 29.92 in 10.0 mi West 8.1 mph - N/A   Clear
4:35 AM 64.4 °F 55.9 °F 74% 29.92 in 10.0 mi West 6.9 mph - N/A   Clear
4:55 AM 61.9 °F 54.9 °F 78% 29.93 in 10.0 mi West 6.9 mph - N/A   Clear
5:15 AM 63.5 °F 55.2 °F 74% 29.94 in 10.0 mi NW 6.9 mph - N/A   Clear
5:35 AM 63.3 °F 54.7 °F 73% 29.95 in 10.0 mi NW 8.1 mph - N/A   Clear
5:55 AM 63.0 °F 53.6 °F 71% 29.96 in 10.0 mi NW 8.1 mph - N/A   Clear
6:15 AM 61.0 °F 51.8 °F 72% 29.97 in 10.0 mi NNW 4.6 mph - N/A   Clear
6:35 AM 59.9 °F 51.3 °F 73% 29.98 in 10.0 mi NW 4.6 mph - N/A   Clear
6:55 AM 55.6 °F 48.7 °F 78% 29.99 in 10.0 mi WNW 3.5 mph - N/A   Clear
7:15 AM 55.2 °F 48.4 °F 78% 29.99 in 10.0 mi Calm Calm - N/A   Clear
7:35 AM 56.3 °F 50.4 °F 80% 30.01 in 10.0 mi Calm Calm - N/A   Clear
7:55 AM 59.4 °F 52.0 °F 77% 30.01 in 10.0 mi Calm Calm - N/A   Clear
8:15 AM 62.4 °F 47.1 °F 57% 30.02 in 10.0 mi Calm Calm - N/A   Clear
8:35 AM 63.7 °F 45.9 °F 52% 30.02 in 10.0 mi West 3.5 mph - N/A   Clear
8:55 AM 64.9 °F 45.7 °F 50% 30.02 in 10.0 mi West 3.5 mph - N/A   Clear
9:15 AM 65.7 °F 43.2 °F 44% 30.02 in 10.0 mi NW 4.6 mph - N/A   Clear
9:35 AM 66.7 °F 42.4 °F 41% 30.02 in 10.0 mi NW 5.8 mph - N/A   Clear
9:55 AM 67.8 °F 40.1 °F 36% 30.02 in 10.0 mi North 5.8 mph - N/A   Clear
10:15 AM 69.1 °F 39.9 °F 35% 30.03 in 10.0 mi North 4.6 mph - N/A   Clear
10:35 AM 69.8 °F 39.2 °F 33% 30.03 in 10.0 mi NNW 3.5 mph - N/A   Clear
10:55 AM 70.5 °F 38.5 °F 31% 30.04 in 10.0 mi WNW 4.6 mph - N/A   Clear
11:15 AM 71.8 °F 38.8 °F 30% 30.04 in 10.0 mi NNW 5.8 mph - N/A   Clear
11:35 AM 72.5 °F 37.6 °F 28% 30.04 in 10.0 mi West 5.8 mph - N/A   Clear
11:55 AM 73.2 °F 36.7 °F 26% 30.04 in 10.0 mi NW 10.4 mph - N/A   Clear
12:15 PM 73.8 °F 37.9 °F 27% 30.04 in 10.0 mi West 4.6 mph - N/A   Clear
12:35 PM 74.5 °F 37.4 °F 26% 30.03 in 10.0 mi West 11.5 mph 16.1 mph N/A   Clear
12:55 PM 75.7 °F 37.0 °F 25% 30.03 in 10.0 mi WNW 8.1 mph 16.1 mph N/A   Clear
1:15 PM 76.3 °F 37.4 °F 25% 30.03 in 10.0 mi West 9.2 mph - N/A   Clear
1:35 PM 76.8 °F 37.2 °F 24% 30.02 in 10.0 mi West 8.1 mph - N/A   Clear
1:55 PM 77.7 °F 37.6 °F 24% 30.02 in 10.0 mi WNW 6.9 mph 17.3 mph N/A   Clear
2:15 PM 78.4 °F 36.7 °F 22% 30.01 in 10.0 mi West 9.2 mph 20.7 mph N/A   Clear
2:35 PM 78.3 °F 37.2 °F 23% 30.00 in 10.0 mi NW 10.4 mph 18.4 mph N/A   Clear
2:55 PM 78.8 °F 37.4 °F 23% 29.99 in 10.0 mi NW 11.5 mph 17.3 mph N/A   Clear
3:15 PM 79.3 °F 36.1 °F 21% 29.99 in 10.0 mi WNW 12.7 mph 20.7 mph N/A   Clear
3:35 PM 79.0 °F 36.7 °F 22% 29.98 in 10.0 mi West 10.4 mph 17.3 mph N/A   Clear
3:55 PM 79.0 °F 37.8 °F 23% 29.98 in 10.0 mi NNW 12.7 mph 17.3 mph N/A   Clear
4:15 PM 78.8 °F 37.8 °F 23% 29.98 in 10.0 mi WNW 9.2 mph - N/A   Clear
4:35 PM 79.2 °F 37.0 °F 22% 29.97 in 10.0 mi NW 8.1 mph - N/A   Clear
4:55 PM 79.0 °F 37.6 °F 23% 29.97 in 10.0 mi NNW 6.9 mph 10.4 mph N/A   Clear
5:15 PM 79.5 °F 36.9 °F 22% 29.97 in 10.0 mi WNW 11.5 mph - N/A   Clear
5:35 PM 79.2 °F 36.7 °F 22% 29.96 in 10.0 mi WNW 8.1 mph - N/A   Clear
5:55 PM 77.4 °F 41.0 °F 27% 29.97 in 10.0 mi NW 10.4 mph - N/A   Clear
6:15 PM 76.5 °F 40.8 °F 28% 29.97 in 10.0 mi NW 11.5 mph - N/A   Clear
6:35 PM 73.8 °F 42.8 °F 33% 29.97 in 10.0 mi NW 6.9 mph - N/A   Clear
6:55 PM 72.0 °F 43.0 °F 35% 29.97 in 10.0 mi NNW 5.8 mph - N/A   Clear
7:15 PM 69.3 °F 41.4 °F 36% 29.97 in 10.0 mi NNW 5.8 mph - N/A   Clear
7:35 PM 66.6 °F 42.6 °F 42% 29.97 in 10.0 mi NNW 5.8 mph - N/A   Clear
7:55 PM 66.0 °F 40.3 °F 39% 29.97 in 10.0 mi NNW 3.5 mph - N/A   Clear
8:15 PM 67.3 °F 36.5 °F 32% 29.98 in 10.0 mi North 5.8 mph - N/A   Clear
8:35 PM 65.7 °F 38.1 °F 36% 29.98 in 10.0 mi North 4.6 mph - N/A   Clear
8:55 PM 64.4 °F 39.0 °F 39% 29.99 in 10.0 mi NNE 3.5 mph - N/A   Clear
9:15 PM 63.5 °F 39.6 °F 41% 30.00 in 10.0 mi NE 5.8 mph - N/A   Clear
9:35 PM 66.4 °F 37.6 °F 35% 30.00 in 10.0 mi NNE 4.6 mph - N/A   Clear
9:55 PM 64.0 °F 38.5 °F 39% 30.01 in 10.0 mi Calm Calm - N/A   Clear
10:15 PM 60.3 °F 42.1 °F 51% 30.01 in 10.0 mi Calm Calm - N/A   Clear
10:35 PM 59.9 °F 42.3 °F 52% 30.01 in 10.0 mi Calm Calm - N/A   Clear
10:55 PM 62.6 °F 38.8 °F 42% 30.02 in 10.0 mi NE 3.5 mph - N/A   Clear
11:15 PM 61.5 °F 40.5 °F 46% 30.01 in 10.0 mi ENE 3.5 mph - N/A   Clear
11:35 PM 58.1 °F 42.6 °F 56% 30.01 in 10.0 mi East 4.6 mph - N/A   Clear
11:55 PM 56.5 °F 42.3 °F 59% 30.00 in 10.0 mi East 4.6 mph - N/A   Clear